Location: Doschendorf
(50.0069°N, 11.0602°E)
Time: 05:04:25
(UTC+00:00)

Cosmos 773 Rocket - Pass Details

Date: 17 November 2019
Orbit: 745 x 778 km, 74.1° (Epoch: 07 December)

Event Time Altitude Azimuth Distance (km) Brightness Sun altitude
Rises 16:00:02 0° 186° (S) 3,186 7.6 -5.2°
Reaches altitude 10° 16:02:26 10° 181° (S) 2,270 6.8 -5.6°
Maximum altitude 16:07:24 51° 107° (ESE) 949 4.2 -6.3°
Drops below altitude 10° 16:12:27 10° 32° (NNE) 2,307 6.0 -7.0°
Enters shadow 16:14:46 - 28° (NNE) 3,197 6.8 -7.4°
